Es ist keine erhöhte Aufmerksamkeit aufgrund des Wetters notwendig.    Es gibt keine Warnungen.
Webcam Vorhersage DWD Regenradar Wetterlage NRW Blitze Wind GFS-Modell
webcam


Kleve - Düffelward SSO more information Kleve - Düffelward SSO


Goch more information Goch


Weitere Templates dieser Seite und andere Webseiten:

Meteotemplate

Awekas - Template

weather34 - Template

Wetter aus Willich

Hubert Reyers' Wetter


te
World Weather Websites
 
 
 

METAR-Meldungen aus der Umgebung

   
EHDL - Nijmegen
Aktualisierung: 04-03-2021 02:55
Nebel, Bewölkt  
Nebel, Bewölkt  
   Wind: NNW 7.4 km/h
Wind: NNW 7.4 km/h
Temperatur: 3°C
Gefühlt: 1°C
Taupunkt: 3°C
Luftfeuchte: 100%
Luftdruck: 1023 hPa
Bewölkt: Bewölkt
Sichtbarkeit: 2 km
Bewölkung: Bewölkt 30.5 m
EHDL 040155Z AUTO 33004KT 280V020 1800 R20/1500N BR OVC001 03/03 Q1023 RED
EHDL - Arnhem
Aktualisierung: 04-03-2021 02:55
Nebel, Bewölkt  
Nebel, Bewölkt  
   Wind: NNW 7.4 km/h
Wind: NNW 7.4 km/h
Temperatur: 3°C
Gefühlt: 1°C
Taupunkt: 3°C
Luftfeuchte: 100%
Luftdruck: 1023 hPa
Bewölkt: Bewölkt
Sichtbarkeit: 2 km
Bewölkung: Bewölkt 30.5 m
EHDL 040155Z AUTO 33004KT 280V020 1800 R20/1500N BR OVC001 03/03 Q1023 RED
EHAM - Amsterdam
Aktualisierung: 04-03-2021 02:55
Nebel, Bewölkt  
Nebel, Bewölkt  
   Wind: NNW 7.4 km/h
Wind: NNW 7.4 km/h
Temperatur: 4°C
Gefühlt: 2°C
Taupunkt: 3°C
Luftfeuchte: 93%
Luftdruck: 1023 hPa
Bewölkt: Bewölkt
Sichtbarkeit: 4 km
Bewölkung: Teilweise bewölkt 91.4 m,
Bewölkt 152.4 m
EHAM 040155Z 34004KT 3500 BR SCT003 OVC005 04/03 Q1023 NOSIG
EHDL - Ede
Aktualisierung: 04-03-2021 02:55
Nebel, Bewölkt  
Nebel, Bewölkt  
   Wind: NNW 7.4 km/h
Wind: NNW 7.4 km/h
Temperatur: 3°C
Gefühlt: 1°C
Taupunkt: 3°C
Luftfeuchte: 100%
Luftdruck: 1023 hPa
Bewölkt: Bewölkt
Sichtbarkeit: 2 km
Bewölkung: Bewölkt 30.5 m
EHDL 040155Z AUTO 33004KT 280V020 1800 R20/1500N BR OVC001 03/03 Q1023 RED
EHDL - Emmen
Aktualisierung: 04-03-2021 02:55
Nebel, Bewölkt  
Nebel, Bewölkt  
   Wind: NNW 7.4 km/h
Wind: NNW 7.4 km/h
Temperatur: 3°C
Gefühlt: 1°C
Taupunkt: 3°C
Luftfeuchte: 100%
Luftdruck: 1023 hPa
Bewölkt: Bewölkt
Sichtbarkeit: 2 km
Bewölkung: Bewölkt 30.5 m
EHDL 040155Z AUTO 33004KT 280V020 1800 R20/1500N BR OVC001 03/03 Q1023 RED
EHAM - Den Haag
Aktualisierung: 04-03-2021 02:55
Nebel, Bewölkt  
Nebel, Bewölkt  
   Wind: NNW 7.4 km/h
Wind: NNW 7.4 km/h
Temperatur: 4°C
Gefühlt: 2°C
Taupunkt: 3°C
Luftfeuchte: 93%
Luftdruck: 1023 hPa
Bewölkt: Bewölkt
Sichtbarkeit: 4 km
Bewölkung: Teilweise bewölkt 91.4 m,
Bewölkt 152.4 m
EHAM 040155Z 34004KT 3500 BR SCT003 OVC005 04/03 Q1023 NOSIG
EHAM - Apeldoorn
Aktualisierung: 04-03-2021 02:55
Nebel, Bewölkt  
Nebel, Bewölkt  
   Wind: NNW 7.4 km/h
Wind: NNW 7.4 km/h
Temperatur: 4°C
Gefühlt: 2°C
Taupunkt: 3°C
Luftfeuchte: 93%
Luftdruck: 1023 hPa
Bewölkt: Bewölkt
Sichtbarkeit: 4 km
Bewölkung: Teilweise bewölkt 91.4 m,
Bewölkt 152.4 m
EHAM 040155Z 34004KT 3500 BR SCT003 OVC005 04/03 Q1023 NOSIG
EHAM - Leeuwarden
Aktualisierung: 04-03-2021 02:55
Nebel, Bewölkt  
Nebel, Bewölkt  
   Wind: NNW 7.4 km/h
Wind: NNW 7.4 km/h
Temperatur: 4°C
Gefühlt: 2°C
Taupunkt: 3°C
Luftfeuchte: 93%
Luftdruck: 1023 hPa
Bewölkt: Bewölkt
Sichtbarkeit: 4 km
Bewölkung: Teilweise bewölkt 91.4 m,
Bewölkt 152.4 m
EHAM 040155Z 34004KT 3500 BR SCT003 OVC005 04/03 Q1023 NOSIG
TNCC - Willemstad
Aktualisierung: 04-03-2021 03:00
leicht bewölkt  
leicht bewölkt  
   Wind: Osten 24.1 km/h
Wind: Osten 24.1 km/h
Temperatur: 26°C
Taupunkt: 20°C
Luftfeuchte: 70%
Luftdruck: 1015 hPa
Bewölkt: leicht bewölkt
Sichtbarkeit: More than 10 km
Bewölkung: leicht bewölkt 548.6 m
TNCC 040200Z 09013KT 9999 FEW018 26/20 Q1015 NOSIG
EHEH - Eindhoven
Aktualisierung: 04-03-2021 02:55
Nebel, Bewölkt  
Nebel, Bewölkt  
   Wind: variiert 1.9 km/h
Wind: variiert 1.9 km/h
Temperatur: 4°C
Taupunkt: 4°C
Luftfeuchte: 100%
Luftdruck: 1023 hPa
Bewölkt: Bewölkt
Sichtbarkeit: 0 km
Bewölkung: Bewölkt
EHEH 040155Z AUTO VRB01KT 0350 FG OVC000 04/04 Q1023 RED
EHAM - Middelburg
Aktualisierung: 04-03-2021 02:55
Nebel, Bewölkt  
Nebel, Bewölkt  
   Wind: NNW 7.4 km/h
Wind: NNW 7.4 km/h
Temperatur: 4°C
Gefühlt: 2°C
Taupunkt: 3°C
Luftfeuchte: 93%
Luftdruck: 1023 hPa
Bewölkt: Bewölkt
Sichtbarkeit: 4 km
Bewölkung: Teilweise bewölkt 91.4 m,
Bewölkt 152.4 m
EHAM 040155Z 34004KT 3500 BR SCT003 OVC005 04/03 Q1023 NOSIG
EHAM - Delfzijl
Aktualisierung: 04-03-2021 02:55
Nebel, Bewölkt  
Nebel, Bewölkt  
   Wind: NNW 7.4 km/h
Wind: NNW 7.4 km/h
Temperatur: 4°C
Gefühlt: 2°C
Taupunkt: 3°C
Luftfeuchte: 93%
Luftdruck: 1023 hPa
Bewölkt: Bewölkt
Sichtbarkeit: 4 km
Bewölkung: Teilweise bewölkt 91.4 m,
Bewölkt 152.4 m
EHAM 040155Z 34004KT 3500 BR SCT003 OVC005 04/03 Q1023 NOSIG

Script entwickelt von  Saratoga-weather.org Angepasst für das Template von  Weerstation Leuven

Sie finden Wetter-Infos dieser Station auch auf:

UK Metoffice

European Weather Network

WeatherCloud

Weather Underground

AWEKAS

Neuwetter

Wettersektor

Von uns verwendete Ausrüstung:

Wetterstation
Davis Vantage Pro2

Wetterprogramm
Meteobridge

WetterComputer
Computer

Davis Vantage Pro2

Meteobridge

Computer